Regional Weather Roundup
Issued by NWS

Home | Current Version | Previous Version | Text Only | Print | Product List | Glossary Off
Versions: 1 2 3 4 5 6 7 8 9 10 11 12 13 14 15 16 17 18 19 20 21 22 23 24 25 26 27 28 29 30 31 32 33 34 35 36 37 38 39 40 41 42 43 44 45 46 47 48 49 50

000
ASUS43 KDMX 270103
RWRIA

WEATHER ROUNDUP FOR IOWA
NATIONAL WEATHER SERVICE DES MOINES IA
800 PM CDT MON SEP 26 2016

NOTE: "FAIR" INDICATES FEW OR NO CLOUDS BELOW 12,000 FEET WITH NO
SIGNIFICANT WEATHER AND/OR OBSTRUCTIONS TO VISIBILITY.

* - THESE STATIONS ARE NOT NWS STATIONS...THUS NOT UNDER NWS
QUALITY CONTROL.  THEY ALSO DO NOT REPORT WEATHER SUCH
AS PRECIPITATION OR FOG.

IAZ001>003-012>014-020>022-031>034-043>046-270200-
   NORTHWEST IOWA

CITY           SKY/WX    TMP DP  RH WIND       PRES   REMARKS
CARROLL *      CLEAR     57  45  62 W7        30.04R
CHEROKEE *     CLEAR     59  41  51 W6        30.04R
DENISON *      CLEAR     61  45  55 W3        30.04R
LE MARS *      CLEAR     59  45  58 W3        30.06R
ORANGE CITY *  CLEAR     57  43  58 W3        30.05R
SHELDON *      CLEAR     57  39  51 W8        30.02R
SIOUX CITY     CLEAR     63  44  50 W7        30.06S
SPENCER        CLEAR     55  39  54 W8        30.02R
STORM LAKE *   CLEAR     59  41  51 W8        30.04S
$$

IAZ055>058-069>071-079>083-090>094-270200-
   SOUTHWEST IOWA

CITY           SKY/WX    TMP DP  RH WIND       PRES   REMARKS
ATLANTIC *     CLEAR     59  46  63 CALM      30.06R
AUDUBON *      CLEAR     55  46  71 CALM      30.07R
CLARINDA *       N/A     55  50  82 MISG      30.09S
COUNCIL BLFS * CLEAR     64  41  42 W6        30.07R
CRESTON *      CLEAR     63  43  48 SW6       30.08S
HARLAN  *      CLEAR     55  46  71 NW5       30.09S
LAMONI         CLEAR     63  45  51 W3        30.07S
RED OAK *      CLEAR     61  46  59 W5        30.06F
SHENANDOAH *   CLEAR     64  46  52 S6        30.08S
$$

IAZ047>049-059>061-072>074-084-270200-
   CENTRAL IOWA

CITY           SKY/WX    TMP DP  RH WIND       PRES   REMARKS
AMES           CLEAR     58  43  57 W8        30.01S
ANKENY *         N/A    N/A N/A N/A MISG        N/A
BOONE *        CLEAR     63  39  42 W7        30.01S
CHARITON *       N/A     61  45  55 SW7       30.05S
DES MOINES     CLEAR     64  42  44 W6        30.02S
GRINNELL*      PTCLDY    60  37  41 SW7       30.01S
KNOXVILLE *    CLEAR     61  43  51 SW7G15    30.02S
MARSHALLTOWN   CLEAR     59  39  47 W7        29.99S
NEWTON *       CLEAR     61  37  41 W6        30.01S
PELLA *        CLEAR     63  43  47 W6        30.03S
PERRY *          N/A     58  41  54 W6        30.03S
$$

IAZ004>006-015-016-023>025-035-036-270200-
   NORTH CENTRAL IOWA

CITY           SKY/WX    TMP DP  RH WIND       PRES   REMARKS
ALGONA *       CLEAR     57  36  44 W7        30.00R
CLARION *      CLEAR     57  39  51 W7        29.99S
ESTHERVILLE    CLEAR     51  36  56 W9        29.99S
FORT DODGE *   CLEAR     59  36  41 W6        30.01S
MASON CITY     CLEAR     52  36  54 W6        29.98S
FOREST CITY *    N/A     54  32  43 W5        29.98R
WEBSTER CITY * CLEAR     57  41  54 W8        29.99R
IOWA FALLS *     N/A     58  40  49 W8        30.00S
$$

IAZ007>011-017>019-026>030-037>042-050>054-066-270200-
   NORTHEAST IOWA

CITY           SKY/WX    TMP DP  RH WIND       PRES   REMARKS
CEDAR RAPIDS   CLEAR     55  41  59 W6        29.98R
CHARLES CITY * CLEAR     59  32  36 W8        29.96S
CLINTON *      CLEAR     56  40  55 SW6       29.97S
DECORAH *      CLEAR     59  34  38 VRB3      29.92S
DUBUQUE        CLEAR     56  37  49 W8        29.96R
MONTICELLO *   CLEAR     55  39  54 CALM      29.96R
OELWEIN *      CLEAR     54  39  58 W8        29.96S
WATERLOO       CLEAR     59  37  44 W6        29.96R
$$

IAZ064-065-067-068-078-270200-
   EAST CENTRAL IOWA

CITY           SKY/WX    TMP DP  RH WIND       PRES   REMARKS
DAVENPORT      CLEAR     60  37  42 SW7       29.98S
IOWA CITY      CLEAR     59  41  51 W6        30.00S
MT. PLEASANT * CLEAR     60  43  53 SW5       30.03R
MUSCATINE *    CLEAR     63  39  42 SW10      29.99S
QUAD CITIES    CLEAR     61  40  45 SW6       29.98S
$$

IAZ062-063-075>077-085>089-095>099-270200-
   SOUTHEAST IOWA

CITY           SKY/WX    TMP DP  RH WIND       PRES   REMARKS
BURLINGTON     CLEAR     60  42  51 W7        30.02S
FAIRFIELD *    CLEAR     61  39  44 SW6       30.02S
FORT MADISON * CLEAR     63  41  45 SW5       30.04F
KEOKUK *       CLEAR     63  41  45 W5        30.04S
OSKALOOSA *      N/A     57  40  53 SW7       30.03S
OTTUMWA        CLEAR     58  41  53 SW7       30.03R
WASHINGTON *     N/A    N/A N/A N/A MISG        N/A
$$

ABBREVIATIONS USED IN REMARKS
   TC - TEMPERATURES IN CELSIUS
  WCI - WIND CHILL INDEX
   HX - HEAT INDEX
  VSB - VISIBILITY
$$





USA.gov is the U.S. government's official web portal to all federal, state and local government web resources and services.